Regional Weather Roundup
Issued by NWS

Home | Current Version | Previous Version | Text Only | Print | Product List | Glossary On
Versions: 1 2 3 4 5 6 7 8 9 10 11 12 13 14 15 16 17 18 19 20 21 22 23 24 25 26 27 28 29 30 31 32 33 34 35 36 37 38 39 40 41 42 43 44 45 46 47 48 49 50
000
ASUS43 KLOT 300621
RWRIL

ILLINOIS REGIONAL WEATHER ROUNDUP
NATIONAL WEATHER SERVICE CHICAGO/ROMEOVILLE IL
100 AM CDT SUN AUG 30 2015

NOTE: "FAIR" INDICATES FEW OR NO CLOUDS BELOW 12,000 FEET WITH NO
SIGNIFICANT WEATHER AND/OR OBSTRUCTIONS TO VISIBILITY.

* THESE STATIONS ARE NOT UNDER NWS QUALITY CONTROL. THEY ALSO MAY NOT
  REPORT WEATHER SUCH AS PRECIPITATION OR FOG.

ILZ001-002-007-009-015-016-024-300700-
NORTHWEST ILLINOIS

CITY           SKY/WX    TMP DP  RH WIND       PRES   REMARKS
MOLINE         FOG       62  60  93 CALM      30.04S VSB 1/4
6HR MIN TEMP:  61; 6HR MAX TEMP:  72;

STERLING*      CLOUDY    66  64  94 CALM      30.02S
SAVANNA*       CLOUDY    67  64  88 CALM      30.04S
$$

ILZ003-004-008-010-011-017-018-300700-
NORTH CENTRAL ILLINOIS

CITY           SKY/WX    TMP DP  RH WIND       PRES   REMARKS
ROCKFORD       CLOUDY    67  63  87 N6        30.06R
6HR MIN TEMP:  67; 6HR MAX TEMP:  71; 6HR PCP: TRACE;

FREEPORT*      CLOUDY    64  63  97 CALM      30.07R FOG
ROCHELLE*      CLOUDY    64  64  97 CALM      30.05R FOG
DE KALB*       CLOUDY    64  63  98 CALM      30.05S FOG
PERU*          MOCLDY    67  65  94 NE3       30.04S FOG
$$

ILZ005-006-012>014-019>023-300700-
NORTHEAST ILLINOIS

CITY           SKY/WX    TMP DP  RH WIND       PRES   REMARKS
CHICAGO-OHARE  CLOUDY    65  64  97 SE3       30.02F FOG
6HR MIN TEMP:  65; 6HR MAX TEMP:  68; 6HR PCP:  0.05;

CHICAGO-MIDWAY CLOUDY    68  65  90 N5        30.02F FOG
6HR MIN TEMP:  68; 6HR MAX TEMP:  72; 6HR PCP:  0.03;

AURORA         FOG       66  65  96 CALM      30.04S VSB 1/4
6HR MIN TEMP:  67; 6HR MAX TEMP:  70; 6HR PCP:  0.02;

LANSING*       CLOUDY    67  66  94 CALM      30.03S FOG
JOLIET*        CLOUDY    69  67  96 CALM      30.03R FOG
WAUKEGAN       FOG       63  63 100 CALM      30.03S VSB 1
6HR MIN TEMP:  63; 6HR MAX TEMP:  65;

DUPAGE AIRPORT CLOUDY    66  64  93 CALM      30.03S FOG
6HR MIN TEMP:  66; 6HR MAX TEMP:  69; 6HR PCP:  0.01;

KANKAKEE*      CLOUDY    69  69  98 CALM      30.03S FOG
WHEELING       CLOUDY    65  63  93 N8        30.03F FOG
6HR MIN TEMP:  65; 6HR MAX TEMP:  68; 6HR PCP:  0.01;

MORRIS*        CLOUDY    67  66  96 CALM      30.02S FOG
ROMEOVILLE*    CLOUDY    66  66  98 CALM      30.03S FOG
NORTHERLY ISL    N/A     62  61  96 MISG        N/A
$$

LMZ740>746-300700-
SOUTHERN LAKE MICHIGAN

STATION/POSITION SKY/WX   TEMP    WIND        PRES    VSBY  WAVE
                          AIR SEA DIR/SP/G                  HT/PER
                          (F)     (DEG/KT/KT) (MB)    (MI)  (FT/S)
SOUTHERN BUOY              68 68   60/  2/  2 1016.0F
WILMETTE HARBOR            59 56  150/  8/ 10   N/A           1/ 3
HARRISON CRIB              61     340/ 11/ 13   N/A
BURNHAM HARBOR             62     350/  4/  8   N/A
BURNS HARBOR               69     330/  6/  8 1017.3
MICHIGAN CITY              69     310/  5/  5   N/A
MICHIGAN CITY 6N           69 71  330/  6/  8   N/A           1
ST. JOSEPH                 69 70  300/  4/  4   N/A           0
$$

ILZ025>027-034>036-040-047-049-050-058-095>099-300700-
WEST-CENTRAL ILLINOIS

CITY           SKY/WX    TMP DP  RH WIND       PRES   REMARKS
QUINCY         FAIR      71  68  90 E5        30.01F
GALESBURG*     CLOUDY    67  66  99 CALM      30.04R FOG
MACOMB*        FAIR      66  66  99 CALM      30.05R FOG
JACKSONVILLE*  MOCLDY    74  70  87 S5        30.02S
PITTSFIELD*    FAIR      72  70  93 CALM      30.03S
$$

ILZ028>032-037-038-041>044-048-051>054-059>061-300700-
CENTRAL ILLINOIS

CITY           SKY/WX    TMP DP  RH WIND       PRES   REMARKS
PONTIAC        MOCLDY    69  69  98 N5        30.03F FOG
BLOOMINGTON    MOCLDY    72  70  94 CALM      30.04S FOG
DECATUR        CLOUDY    72  67  84 SW5       30.04R
PEORIA         FAIR      72  67  84 E7        30.02S
6HR MIN TEMP:  72; 6HR MAX TEMP:  80; 6HR PCP:  0.01;

LACON*         CLOUDY    69  66  92 CALM      30.02S
LINCOLN*       FAIR      72  67  83 SW3       30.02S
SPRINGFIELD    MOCLDY    73  67  81 SW3       30.02S
6HR MIN TEMP:  72; 6HR MAX TEMP:  80;

TAYLORVILLE    CLOUDY    66  64  94 CALM      30.03S
$$

ILZ033-039-045-046-055>057-062-063-300700-
EAST-CENTRAL ILLINOIS

CITY           SKY/WX    TMP DP  RH WIND       PRES   REMARKS
CHAMPAIGN      CLOUDY    68  66  93 CALM      30.04S FOG
RANTOUL*       MOCLDY    70  69  96 CALM      30.03F FOG
MATTOON          N/A     70  65  84 S5        30.03S
PARIS*         FAIR      68  66  96 S5        30.04F
$$

ILZ079-100>102-300700-
SOUTHWEST ILLINOIS

CITY           SKY/WX    TMP DP  RH WIND       PRES   REMARKS
ALTON          CLOUDY    69  67  94 CALM      30.03S
BELLEVILLE     CLOUDY    72  72  98 CALM      30.02S
CAHOKIA*       CLOUDY    73  68  84 SE3       30.03R
SPARTA*        MOCLDY    72  68  88 S7        30.04F
$$

ILZ064>066-069>071-074>076-080>082-084>086-088>090-092>094-300700-
SOUTH-CENTRAL ILLINOIS

CITY           SKY/WX    TMP DP  RH WIND       PRES   REMARKS
CARBONDALE     CLOUDY    71  68  90 S6        30.03F
6HR MIN TEMP:  70; 6HR MAX TEMP:  76; 6HR PCP:  0.09;

CAIRO*         DRIZZLE   72  72 100 CALM      30.05S
EFFINGHAM*     FAIR      70  64  83 SE3       30.05S
MARION         MOCLDY    70  68  94 CALM      30.05F
MT. VERNON     CLOUDY    68  61  77 CALM      30.06S
SALEM*         CLOUDY    73  62  68 S6        30.03F
METROPOLIS*    CLOUDY    73  73  99 CALM      30.05S
$$

ILZ067-068-072-073-078-083-087-091-300700-
SOUTHEAST ILLINOIS

CITY           SKY/WX    TMP DP  RH WIND       PRES   REMARKS
LAWRENCEVILLE  FAIR      70  68  93 SE6       30.04F FOG
FLORA*         FAIR      69  66  92 CALM      30.04F
FAIRFIELD*     FAIR      69  68  99 CALM      30.04S FOG
HARRISBURG*    FAIR      71  69  95 CALM      30.04F
ROBINSON*      FAIR      68  67  97 CALM      30.05F FOG
CARMI*         FAIR      70  69  97 W5        30.04S
$$

ABBREVIATIONS USED IN REMARKS
   TC - TEMPERATURE IN CELSIUS
  WCI - WIND CHILL INDEX
   HX - HEAT INDEX
  VSB - VISIBILITY
$$



USA.gov is the U.S. government's official web portal to all federal, state and local government web resources and services.